When you browse on this site, cookies collect data to enhance your experience and personalize the content and advertising you see.
Visit our Privacy Policy to learn more. By continuing to use the site, you agree to this use of cookies and data.
  • In Lithuania
  • List of Countries
  • For 7 days
  • Water Temperature
  • Satellite Maps
  • Weather Map
  • Weather Widgets
  • user-avatar
    Login

    Hourly Weather Crete

    Today, 13 December, Thursday

    Time Temperature Precipitation Wind Pressure Humidity
    00:00 +7°C° 0 mm 2 mps 712 mmHg 62%
    01:00 +7°C° 0 mm 2 mps 712 mmHg 63%
    02:00 +7°C° 0 mm 2 mps 712 mmHg 64%
    03:00 +7°C° 0 mm 2 mps 712 mmHg 64%
    04:00 +7°C° 0 mm 2 mps 712 mmHg 65%
    05:00 +6°C° 0 mm 2 mps 712 mmHg 65%
    06:00 +7°C° 0 mm 2 mps 712 mmHg 67%
    07:00 +7°C° 0 mm 3 mps 712 mmHg 68%
    08:00 +7°C° 0 mm 3 mps 711 mmHg 69%
    09:00 +8°C° 0 mm 4 mps 711 mmHg 67%
    10:00 +9°C° 0 mm 5 mps 711 mmHg 65%
    11:00 +12°C° 0 mm 5 mps 711 mmHg 63%
    12:00 +11°C° 0.2 mm 6 mps 711 mmHg 67%
    13:00 +11°C° 0.2 mm 6 mps 711 mmHg 71%
    14:00 +13°C° 0 mm 5 mps 710 mmHg 70%
    15:00 +12°C° 0.1 mm 5 mps 710 mmHg 73%
    16:00 +12°C° 0.1 mm 5 mps 711 mmHg 75%
    17:00 +10°C° 0.1 mm 5 mps 711 mmHg 78%
    18:00 +10°C° 0.1 mm 5 mps 711 mmHg 79%
    19:00 +10°C° 0.1 mm 5 mps 710 mmHg 80%
    20:00 +10°C° 0.1 mm 5 mps 710 mmHg 81%
    21:00 +10°C° 0.1 mm 5 mps 711 mmHg 80%
    22:00 +11°C° 0.1 mm 4 mps 711 mmHg 80%
    23:00 +11°C° 0.1 mm 4 mps 711 mmHg 80%

    Tomorrow, 14 December, Friday

    Time Temperature Precipitation Wind Pressure Humidity
    00:00 +11°C° 0 mm 4 mps 711 mmHg 79%
    01:00 +11°C° 0 mm 4 mps 711 mmHg 79%
    02:00 +11°C° 0 mm 4 mps 711 mmHg 79%
    03:00 +10°C° 0 mm 4 mps 711 mmHg 79%
    04:00 +10°C° 0 mm 4 mps 711 mmHg 79%
    05:00 +10°C° 0 mm 4 mps 711 mmHg 79%
    06:00 +10°C° 0 mm 4 mps 711 mmHg 79%
    07:00 +10°C° 0 mm 4 mps 711 mmHg 78%
    08:00 +11°C° 0 mm 4 mps 711 mmHg 77%
    09:00 +12°C° 0 mm 4 mps 711 mmHg 71%
    10:00 +13°C° 0 mm 4 mps 712 mmHg 65%
    11:00 +15°C° 0 mm 4 mps 712 mmHg 59%
    12:00 +16°C° 0 mm 3 mps 712 mmHg 58%
    13:00 +16°C° 0 mm 3 mps 712 mmHg 58%
    14:00 +16°C° 0 mm 3 mps 711 mmHg 57%
    15:00 +14°C° 0 mm 3 mps 711 mmHg 59%
    16:00 +13°C° 0 mm 3 mps 711 mmHg 62%
    17:00 +14°C° 0 mm 2 mps 711 mmHg 65%
    18:00 +12°C° 0 mm 3 mps 711 mmHg 66%
    19:00 +12°C° 0 mm 3 mps 711 mmHg 68%
    20:00 +11°C° 0 mm 4 mps 711 mmHg 69%
    21:00 +11°C° 0 mm 4 mps 711 mmHg 71%
    22:00 +11°C° 0 mm 4 mps 711 mmHg 72%
    23:00 +10°C° 0 mm 5 mps 711 mmHg 73%

    Day after tomorrow, 15 December, Saturday

    Time Temperature Precipitation Wind Pressure Humidity
    00:00 +10°C° 0 mm 5 mps 711 mmHg 73%
    01:00 +10°C° 0 mm 5 mps 711 mmHg 74%
    02:00 +10°C° 0 mm 5 mps 711 mmHg 75%
    03:00 +10°C° 0 mm 5 mps 710 mmHg 74%
    04:00 +10°C° 0 mm 5 mps 710 mmHg 74%
    05:00 +10°C° 0 mm 5 mps 710 mmHg 74%
    06:00 +10°C° 0 mm 5 mps 710 mmHg 74%
    07:00 +12°C° 0 mm 5 mps 710 mmHg 73%
    08:00 +11°C° 0 mm 6 mps 710 mmHg 73%
    09:00 +13°C° 0 mm 6 mps 710 mmHg 70%
    10:00 +12°C° 0 mm 7 mps 710 mmHg 67%
    11:00 +14°C° 0 mm 7 mps 710 mmHg 64%
    12:00 +14°C° 0 mm 7 mps 709 mmHg 64%
    13:00 +14°C° 0 mm 7 mps 709 mmHg 64%
    14:00 +14°C° 0 mm 7 mps 708 mmHg 64%
    15:00 +14°C° 0 mm 7 mps 707 mmHg 66%
    16:00 +13°C° 0 mm 6 mps 707 mmHg 68%
    17:00 +13°C° 0 mm 6 mps 707 mmHg 70%
    18:00 +13°C° 0.1 mm 6 mps 707 mmHg 72%
    19:00 +12°C° 0.1 mm 7 mps 707 mmHg 73%
    20:00 +11°C° 0.1 mm 7 mps 707 mmHg 74%
    21:00 +11°C° 0.4 mm 7 mps 706 mmHg 73%
    22:00 +11°C° 0.4 mm 7 mps 706 mmHg 72%
    23:00 +11°C° 0.4 mm 7 mps 706 mmHg 72%

    16 December, Sunday

    Time Temperature Precipitation Wind Pressure Humidity
    00:00 +11°C° 0.2 mm 6 mps 705 mmHg 71%
    01:00 +10°C° 0.2 mm 6 mps 705 mmHg 71%
    02:00 +10°C° 0.2 mm 5 mps 704 mmHg 71%
    03:00 +10°C° 0.2 mm 4 mps 704 mmHg 74%
    04:00 +10°C° 0.2 mm 4 mps 703 mmHg 76%
    05:00 +8°C° 0.2 mm 4 mps 703 mmHg 79%
    06:00 +8°C° 0.2 mm 4 mps 703 mmHg 79%
    07:00 +8°C° 0.2 mm 4 mps 703 mmHg 80%
    08:00 +8°C° 0.2 mm 4 mps 703 mmHg 81%
    09:00 +10°C° 0.1 mm 4 mps 703 mmHg 75%
    10:00 +11°C° 0.1 mm 4 mps 704 mmHg 70%
    11:00 +12°C° 0.1 mm 3 mps 704 mmHg 65%
    12:00 +12°C° 0.1 mm 4 mps 703 mmHg 64%
    13:00 +13°C° 0.1 mm 4 mps 703 mmHg 63%
    14:00 +13°C° 0.1 mm 4 mps 703 mmHg 62%
    15:00 +12°C° 0 mm 4 mps 703 mmHg 63%
    16:00 +12°C° 0 mm 4 mps 703 mmHg 65%
    17:00 +12°C° 0 mm 4 mps 703 mmHg 66%
    18:00 +11°C° 0 mm 4 mps 704 mmHg 68%
    19:00 +11°C° 0 mm 4 mps 704 mmHg 69%
    20:00 +10°C° 0 mm 4 mps 704 mmHg 71%
    21:00 +9°C° 0 mm 5 mps 705 mmHg 72%
    22:00 +9°C° 0 mm 5 mps 705 mmHg 73%
    23:00 +9°C° 0 mm 5 mps 705 mmHg 73%

    17 December, Monday

    Time Temperature Precipitation Wind Pressure Humidity
    00:00 +9°C° 0 mm 6 mps 705 mmHg 74%
    01:00 +9°C° 0 mm 6 mps 706 mmHg 75%
    02:00 +8°C° 0 mm 6 mps 706 mmHg 76%
    03:00 +9°C° 0 mm 6 mps 706 mmHg 76%
    04:00 +9°C° 0 mm 6 mps 706 mmHg 77%
    05:00 +9°C° 0 mm 6 mps 706 mmHg 77%
    06:00 +9°C° 0.1 mm 6 mps 707 mmHg 76%
    07:00 +9°C° 0.1 mm 5 mps 707 mmHg 76%
    08:00 +10°C° 0.1 mm 5 mps 708 mmHg 75%
    09:00 +12°C° 0.1 mm 5 mps 708 mmHg 71%
    10:00 +12°C° 0.1 mm 5 mps 709 mmHg 67%
    11:00 +13°C° 0.1 mm 5 mps 709 mmHg 63%
    12:00 +13°C° 0 mm 5 mps 709 mmHg 62%
    13:00 +14°C° 0 mm 5 mps 709 mmHg 61%
    14:00 +14°C° 0 mm 5 mps 709 mmHg 60%
    15:00 +13°C° 0 mm 5 mps 709 mmHg 63%
    16:00 +13°C° 0 mm 5 mps 709 mmHg 66%
    17:00 +12°C° 0 mm 4 mps 710 mmHg 69%
    18:00 +11°C° 0 mm 4 mps 710 mmHg 72%
    19:00 +11°C° 0 mm 4 mps 710 mmHg 75%
    20:00 +10°C° 0 mm 4 mps 711 mmHg 78%
    21:00 +10°C° 0 mm 3 mps 711 mmHg 79%
    22:00 +10°C° 0 mm 3 mps 711 mmHg 80%
    23:00 +10°C° 0 mm 3 mps 711 mmHg 80%

    18 December, Tuesday

    Time Temperature Precipitation Wind Pressure Humidity
    00:00 +10°C° 0 mm 3 mps 711 mmHg 81%
    01:00 +9°C° 0 mm 3 mps 711 mmHg 82%
    02:00 +9°C° 0 mm 3 mps 711 mmHg 83%
    03:00 +9°C° 0 mm 3 mps 711 mmHg 82%
    04:00 +9°C° 0 mm 3 mps 711 mmHg 82%
    05:00 +9°C° 0 mm 3 mps 711 mmHg 82%
    06:00 +9°C° 0 mm 2 mps 711 mmHg 82%
    07:00 +9°C° 0 mm 2 mps 711 mmHg 81%
    08:00 +9°C° 0 mm 2 mps 711 mmHg 81%
    09:00 +10°C° 0 mm 2 mps 711 mmHg 76%
    10:00 +11°C° 0 mm 3 mps 711 mmHg 70%
    11:00 +13°C° 0 mm 3 mps 711 mmHg 65%
    12:00 +13°C° 0.2 mm 3 mps 711 mmHg 69%
    13:00 +12°C° 0.2 mm 4 mps 710 mmHg 73%
    14:00 +12°C° 0.2 mm 4 mps 709 mmHg 77%
    15:00 +12°C° 1.4 mm 5 mps 709 mmHg 80%
    16:00 +12°C° 1.4 mm 5 mps 708 mmHg 84%
    17:00 +11°C° 1.4 mm 6 mps 708 mmHg 87%
    18:00 +10°C° 1.1 mm 6 mps 708 mmHg 85%
    19:00 +10°C° 1.1 mm 6 mps 707 mmHg 84%
    20:00 +10°C° 1.1 mm 6 mps 707 mmHg 82%
    21:00 +9°C° 0.1 mm 6 mps 707 mmHg 80%
    22:00 +9°C° 0.1 mm 7 mps 707 mmHg 79%
    23:00 +9°C° 0.1 mm 7 mps 706 mmHg 77%
    Show more